SCP
0 0 0 0 0 0 0 0 0 0 0 0 0 0 0 0 0 0 0 0 0 0 0 0 0 0 0 0 0 0 0 0 0 0 0 0 0 0 0 0 0 0 0
0 0 0 0 0 0 0 0 0 0 0 0 0 0 0 0 0 0 0 0 0 0 0 0 0 0 0 0 0 0 0 0 0 0 0 0 0 0 0 0 0 0 0
0 0 0 0 0 0 0 0 0 0 0 0 0 0 0 0 0 0 0 0 0 0 0 0 0 0 0 0 0 0 0 0 0 0 0 0 0 0 0 0 0 0 0
0 0 0 0 0 0 0 0 0 0 0 0 0 0 0 0 0 0 0 0 0 0 0 0 0 0 0 0 0 0 0 0 0 0 0 0 0 0 0 0 0 0 0
0 0 0 0 0 0 0 0 0 0 0 0 0 0 0 0 0 0 0 0 0 0 0 0 0 0 0 0 0 0 0 0 0 0 0 0 0 0 0 0 0 0 0
0 0 0 0 0 0 0 0 0 0 0 0 0 0 0 0 0 0 0 0 0 0 0 0 0 0 0 0 0 0 0 0 0 0 0 0 0 0 0 0 0 0 0
0 0 0 0 0 0 0 0 0 0 0 0 0 0 0 0 0 0 0 0 0 0 0 0 0 0 0 0 0 0 0 0 0 0 0 0 0 0 0 0 0 0 0
0 0 0 0 0 0 0 0 0 0 0 0 0 0 0 0 0 0 0 0 0 0 0 0 0 0 0 0 0 0 0 0 0 0 0 0 0 0 0 0 0 0 0
0 0 0 0 0 0 0 0 0 0 0 0 0 0 0 0 0 0 0 0 0 0 0 0 0 0 0 0 0 0 0 0 0 0 0 0 0 0 0 0 0 0 0
0 0 0 0 0 0 0 0 0 0 0 0 0 0 0 0 0 0 0 0 0 0 0 0 0 0 0 0 0 0 0 0 0 0 0 0 0 0 0 0 0 0 0
0 0 0 0 0 0 0 0 0 0 0 0 0 0 0 0 0 0 0 0 0 0 0 0 0 0 0 0 0 0 0 0 0 0 0 0 0 0 0 0 0 0 0
0 0 0 0 0 0 0 0 0 0 0 0 0 0 0 0 0 0 0 0 0 0 0 0 0 0 0 0 0 0 0 0 0 0 0 0 0 0 0 0 0 0 0
0 0 0 0 0 0 0 0 0 0 0 0 0 0 0 0 0 0 0 0 0 0 0 0 0 0 0 0 0 0 0 0 0 0 0 0 0 0 0 0 0 0 0
0 0 0 0 0 0 0 0 0 0 0 0 0 0 0 0 0 0 0 0 0 0 0 0 0 0 0 0 0 0 0 0 0 0 0 0 0 0 0 0 0 0 0
0 0 0 0 0 0 0 0 0 0 0 0 0 0 0 0 0 0 0 0 0 0 0 0 0 0 0 0 0 0 0 0 0 0 0 0 0 0 0 0 0 0 0
0 0 0 0 0 0 0 0 0 0 0 0 0 0 0 0 0 0 0 0 0 0 0 0 0 0 0 0 0 0 0 0 0 0 0 0 0 0 0 0 0 0 0
0 0 0 0 0 0 0 0 0 0 0 0 0 0 0 0 0 0 0 0 0 0 0 0 0 0 0 0 0 0 0 0 0 0 0 0 0 0 0 0 0 0 0
0 0 0 0 0 0 0 0 0 0 0 0 0 0 0 0 0 0 0 0 0 0 0 0 0 0 0 0 0 0 0 0 0 0 0 0 0 0 0 0 0 0 0
0 0 0 0 0 0 0 0 0 0 0 0 0 0 0 0 0 0 0 0 0 0 0 0 0 0 0 0 0 0 0 0 0 0 0 0 0 0 0 0 0 0 0
0 0 0 0 0 0 0 0 0 0 0 0 0 0 0 0 0 0 0 0 0 0 0 0 0 0 0 0 0 0 0 0 0 0 0 0 0 0 0 0 0 0 0
0 0 0 0 0 0 0 0 0 0 0 0 0 0 0 0 0 0 0 0 0 0 0 0 0 0 0 0 0 0 0 0 0 0 0 0 0 0 0 0 0 0 0
0 0 0 0 0 0 0 0 0 0 0 0 0 0 0 0 0 0 0 0 0 0 0 0 0 0 0 0 0 0 0 0 0 0 0 0 0 0 0 0 0 0 0
0 0 0 0 0 0 0 0 0 0 0 0 0 0 0 0 0 0 0 0 0 0 0 0 0 0 0 0 0 0 0 0 0 0 0 0 0 0 0 0 -0 -0 -0
0 0 0 0 0 0 0 0 0 0 0 0 0 0 0 0 0 0 0 0 0 0 0 0 0 0 0 0 0 0 0 0 0 0 0 0 0 -0 -0 -0 -0 -0 -0
0 0 0 0 0 0 0 0 0 0 0 0 0 0 0 0 0 0 0 0 0 0 0 0 0 0 0 0 0 0 0 0 0 0 0 0 -0 -0 -0 -0 -0 -0 -0
0 0 0 0 0 0 0 0 0 0 0 0 0 0 0 0 0 0 0 0 0 0 0 0 0 0 0 0 0 0 0 0 0 0 0 -0 -0 -0 -0 -0 -0 -0 -0
Wind_Speed_500mb
75 76 76 77 76 76 79 80 79 74 68 62 56 50 44 37 30 23 16 12 8 9 9 8 7 7 9 14 20 24 29 36 45 51 51 51 54 58 63 67 72 79 87
77 79 78 75 77 82 85 86 80 72 66 60 55 50 45 38 30 23 17 14 12 13 13 12 11 10 12 17 21 27 32 38 48 54 54 55 57 60 66 71 76 79 84
84 82 81 79 82 87 90 86 80 74 69 64 58 52 45 38 30 24 18 14 15 16 17 16 15 15 17 21 26 31 36 41 47 54 59 59 62 63 69 73 78 81 85
88 88 86 84 84 90 91 87 83 78 72 67 60 52 45 37 31 26 22 19 19 21 22 21 20 21 23 26 31 36 41 46 50 54 59 63 64 65 70 77 83 82 87
95 95 93 87 88 95 94 89 84 79 73 66 60 54 47 40 33 28 28 24 25 28 27 27 27 28 30 33 37 42 46 51 54 58 62 65 65 66 70 76 78 83 89
97 95 92 90 93 96 93 90 86 81 74 67 62 56 50 38 36 39 36 33 32 33 33 32 34 35 36 39 43 47 51 54 59 63 64 66 65 65 69 73 74 82 90
92 91 91 92 93 96 93 89 85 79 74 70 63 55 43 44 40 46 44 40 37 37 37 38 38 40 42 44 47 51 55 57 60 63 66 66 67 62 67 72 75 76 82
93 94 93 93 93 94 92 88 84 81 76 71 61 48 49 50 47 50 51 45 43 42 43 43 43 45 45 47 51 56 61 62 62 62 65 67 62 57 57 70 74 76 82
95 96 95 94 91 92 92 90 86 82 77 66 55 56 59 61 52 58 55 52 50 48 50 50 50 51 48 50 58 64 69 71 65 63 63 54 51 58 63 69 70 71 82
91 96 92 88 90 90 88 85 81 76 64 71 59 64 69 58 55 58 58 59 58 57 57 56 58 57 54 57 63 67 75 75 69 69 69 68 67 63 67 64 62 65 67
71 81 83 85 84 82 80 81 75 67 68 63 71 68 75 51 57 65 61 64 62 62 63 65 65 59 61 64 65 71 78 75 73 68 71 71 72 72 76 65 58 58 63
57 65 73 77 80 74 67 66 73 62 71 77 74 74 60 59 66 64 66 65 62 67 71 69 67 67 69 69 70 73 71 57 63 70 76 78 79 82 77 66 61 59 59
42 45 55 66 72 77 82 77 69 72 80 80 73 65 65 61 62 63 65 62 64 68 70 70 71 72 71 70 70 66 57 66 71 78 81 83 84 77 74 67 63 61 64
24 28 34 43 52 56 57 60 65 71 72 63 60 58 53 57 60 61 62 62 60 61 63 66 66 67 72 75 78 80 76 75 76 81 81 81 79 75 72 64 65 64 68
31 31 33 35 36 39 44 46 49 49 49 46 43 46 52 57 54 55 55 53 54 56 56 59 61 63 69 71 71 71 72 73 75 77 79 78 77 72 70 63 61 62 60
27 29 30 33 37 39 42 44 43 44 45 47 49 50 50 51 51 51 52 49 33 33 44 57 63 67 71 74 71 70 64 64 64 67 73 76 69 65 65 64 58 56 54
18 22 26 30 34 38 41 42 43 45 45 46 50 49 48 46 46 44 44 45 55 56 54 60 67 72 77 80 81 81 81 72 62 58 60 60 60 61 61 61 55 51 46
22 23 23 26 30 33 36 37 39 38 37 36 36 38 38 37 39 43 49 50 52 53 56 60 64 67 70 73 73 72 70 67 65 61 60 58 54 56 56 56 51 45 40
27 28 29 32 34 35 37 38 38 37 36 36 36 33 35 40 43 42 45 46 48 51 53 56 58 60 62 63 62 60 59 57 56 54 51 49 49 52 54 52 46 39 34
28 30 31 32 34 36 37 36 36 34 32 31 32 35 38 37 37 39 41 44 47 49 52 54 54 53 53 54 52 51 50 49 48 49 51 51 48 49 50 47 40 35 30
27 28 30 31 32 32 31 30 30 30 32 33 32 31 38 35 36 38 39 42 45 46 47 48 46 46 46 48 48 46 47 51 51 48 45 42 42 44 43 41 36 32 29
28 28 28 28 28 28 29 30 31 32 31 30 29 30 36 35 35 35 38 39 40 43 45 46 45 44 44 45 45 45 43 41 39 40 40 39 39 40 39 36 33 31 29
26 26 27 28 29 31 32 32 30 29 30 30 31 31 31 31 33 35 36 36 38 39 41 44 46 43 41 43 44 45 44 38 37 37 38 37 38 37 36 35 33 33 31
28 29 29 31 31 32 32 31 31 31 31 31 31 29 30 31 32 33 35 36 37 38 41 42 43 45 43 41 41 41 41 39 37 37 37 37 37 35 35 35 35 34 33
29 30 29 30 30 30 32 33 33 32 31 30 29 29 32 31 31 32 33 35 35 36 36 38 41 43 44 43 39 38 38 37 37 37 36 38 36 34 35 37 37 36 36
29 29 31 31 31 31 32 33 33 32 31 31 32 33 33 33 33 33 34 35 36 36 36 36 37 39 39 41 38 39 39 37 36 36 39 40 39 37 37 38 38 40 38
Wind_Direction_500mb
217 217 217 215 214 212 208 199 196 195 193 193 192 191 190 188 185 188 186 187 193 204 205 213 238 272 299 311 312 313 313 312 312 315 319 322 326 331 329 330 331 335 339
221 220 218 218 216 210 204 199 197 197 196 197 195 194 193 191 191 192 197 197 204 203 204 216 238 265 288 298 302 305 310 310 309 311 314 318 321 324 322 327 331 335 335
219 221 221 221 217 208 203 201 199 200 200 197 199 198 197 196 196 196 204 211 214 213 218 230 244 264 283 297 302 308 307 304 304 305 308 313 312 316 320 324 327 329 330
218 220 222 223 216 208 205 204 203 202 201 201 199 200 199 200 202 211 218 222 226 230 234 243 255 270 284 295 302 302 301 302 301 301 302 302 305 315 319 322 320 324 325
220 221 221 219 214 211 208 207 206 204 204 204 202 200 200 204 215 225 231 234 238 242 247 255 262 272 283 294 297 298 299 299 300 299 298 298 305 311 317 318 318 321 324
221 220 218 213 211 212 211 210 208 206 205 205 205 206 208 218 219 244 233 240 243 249 255 261 267 277 285 290 293 296 296 298 299 296 297 299 303 306 312 312 317 321 322
222 220 216 212 210 212 213 212 211 210 209 209 208 210 219 223 241 237 241 243 249 255 260 264 269 277 282 287 290 291 294 295 294 293 294 296 300 303 307 311 312 313 312
221 219 217 215 212 213 214 214 213 213 213 214 212 223 231 231 239 244 243 247 253 257 261 264 268 273 280 285 286 288 290 291 291 290 288 289 292 305 307 299 305 308 308
223 222 220 217 215 215 215 215 214 215 215 217 223 227 231 242 237 243 247 254 257 260 261 263 267 272 277 280 284 288 289 289 291 290 289 285 282 287 298 301 304 306 309
225 223 221 220 221 220 219 218 217 218 223 227 229 235 234 249 240 245 251 257 261 264 266 269 271 275 278 280 282 284 285 291 292 290 288 289 289 295 304 300 300 301 305
231 229 225 225 225 224 222 220 215 233 230 224 236 237 241 255 242 246 251 258 264 270 274 274 275 277 279 280 282 283 286 290 292 293 293 291 292 295 304 300 297 298 301
228 229 228 226 225 227 222 216 232 228 225 239 238 248 247 250 244 247 254 260 269 273 275 277 280 281 280 280 280 281 283 280 276 280 280 283 289 296 300 299 297 296 297
227 231 230 228 226 225 230 231 218 222 233 240 247 249 250 248 250 254 257 262 266 269 277 282 283 283 286 286 287 287 278 276 273 274 279 279 287 293 301 300 296 296 295
197 203 210 213 215 217 217 224 227 230 239 246 246 245 249 250 254 257 261 264 266 271 277 277 278 279 281 285 287 287 285 282 280 279 282 283 287 291 299 299 296 299 299
220 222 218 217 216 217 223 231 238 239 239 243 248 249 248 249 253 257 262 268 271 273 276 279 282 284 285 287 287 286 286 284 282 282 281 281 282 286 297 298 295 296 300
208 210 211 215 216 218 222 226 228 229 229 232 236 240 244 250 256 263 268 272 274 270 272 276 282 287 290 292 293 293 289 285 283 283 282 277 275 286 293 292 290 292 299
204 208 206 208 210 213 214 216 221 221 227 233 240 247 257 261 264 269 276 275 275 283 281 283 283 284 285 286 287 288 288 288 287 283 282 274 278 284 287 288 287 289 296
208 206 213 216 214 215 216 219 224 228 235 242 249 254 261 268 272 276 276 285 285 288 290 293 294 294 293 291 291 292 292 289 282 277 273 274 275 281 283 283 284 287 294
224 223 222 222 222 224 226 228 232 236 239 242 248 254 261 267 272 277 284 285 290 295 298 299 299 300 301 301 300 297 295 291 284 276 275 275 277 279 280 280 280 282 291
240 240 238 236 235 234 233 233 233 234 237 243 249 257 263 268 275 283 287 292 298 302 304 304 306 307 308 307 305 301 297 294 294 286 277 274 275 275 276 277 276 278 283
245 242 239 235 232 231 231 233 235 238 242 246 249 255 265 273 279 286 295 301 303 304 304 305 309 311 310 309 307 302 293 289 290 287 283 280 276 274 274 274 273 273 281
242 238 235 232 231 233 235 237 239 242 246 251 257 262 273 283 291 297 300 300 303 306 306 308 310 310 309 308 306 305 301 297 292 288 284 281 278 276 275 272 269 268 274
236 234 235 237 238 239 239 241 243 246 252 257 262 268 275 284 291 293 295 297 300 303 305 307 308 307 304 301 300 301 300 300 295 290 286 282 278 277 274 271 269 265 269
233 231 232 236 239 241 241 241 244 247 253 258 264 270 276 279 281 283 288 292 298 301 302 301 301 302 301 298 295 294 293 293 291 290 287 283 280 275 271 269 268 268 266
233 233 232 232 235 239 244 247 250 253 256 260 264 266 268 270 274 278 283 289 294 296 296 296 297 296 296 294 294 293 291 289 289 287 284 282 279 276 273 269 266 267 266
236 236 236 238 240 243 248 253 256 258 259 260 262 264 266 270 272 276 281 285 289 292 294 296 296 296 296 295 294 292 290 289 287 283 282 279 277 275 272 270 266 265 267
Wind_Speed_850mb
75 76 76 77 76 76 79 80 79 74 68 62 56 50 44 37 30 23 16 12 8 9 9 8 7 7 9 14 20 24 29 36 45 51 51 51 54 58 63 67 72 79 87
77 79 78 75 77 82 85 86 80 72 66 60 55 50 45 38 30 23 17 14 12 13 13 12 11 10 12 17 21 27 32 38 48 54 54 55 57 60 66 71 76 79 84
84 82 81 79 82 87 90 86 80 74 69 64 58 52 45 38 30 24 18 14 15 16 17 16 15 15 17 21 26 31 36 41 47 54 59 59 62 63 69 73 78 81 85
88 88 86 84 84 90 91 87 83 78 72 67 60 52 45 37 31 26 22 19 19 21 22 21 20 21 23 26 31 36 41 46 50 54 59 63 64 65 70 77 83 82 87
95 95 93 87 88 95 94 89 84 79 73 66 60 54 47 40 33 28 28 24 25 28 27 27 27 28 30 33 37 42 46 51 54 58 62 65 65 66 70 76 78 83 89
97 95 92 90 93 96 93 90 86 81 74 67 62 56 50 38 36 39 36 33 32 33 33 32 34 35 36 39 43 47 51 54 59 63 64 66 65 65 69 73 74 82 90
92 91 91 92 93 96 93 89 85 79 74 70 63 55 43 44 40 46 44 40 37 37 37 38 38 40 42 44 47 51 55 57 60 63 66 66 67 62 67 72 75 76 82
93 94 93 93 93 94 92 88 84 81 76 71 61 48 49 50 47 50 51 45 43 42 43 43 43 45 45 47 51 56 61 62 62 62 65 67 62 57 57 70 74 76 82
95 96 95 94 91 92 92 90 86 82 77 66 55 56 59 61 52 58 55 52 50 48 50 50 50 51 48 50 58 64 69 71 65 63 63 54 51 58 63 69 70 71 82
91 96 92 88 90 90 88 85 81 76 64 71 59 64 69 58 55 58 58 59 58 57 57 56 58 57 54 57 63 67 75 75 69 69 69 68 67 63 67 64 62 65 67
71 81 83 85 84 82 80 81 75 67 68 63 71 68 75 51 57 65 61 64 62 62 63 65 65 59 61 64 65 71 78 75 73 68 71 71 72 72 76 65 58 58 63
57 65 73 77 80 74 67 66 73 62 71 77 74 74 60 59 66 64 66 65 62 67 71 69 67 67 69 69 70 73 71 57 63 70 76 78 79 82 77 66 61 59 59
42 45 55 66 72 77 82 77 69 72 80 80 73 65 65 61 62 63 65 62 64 68 70 70 71 72 71 70 70 66 57 66 71 78 81 83 84 77 74 67 63 61 64
24 28 34 43 52 56 57 60 65 71 72 63 60 58 53 57 60 61 62 62 60 61 63 66 66 67 72 75 78 80 76 75 76 81 81 81 79 75 72 64 65 64 68
31 31 33 35 36 39 44 46 49 49 49 46 43 46 52 57 54 55 55 53 54 56 56 59 61 63 69 71 71 71 72 73 75 77 79 78 77 72 70 63 61 62 60
27 29 30 33 37 39 42 44 43 44 45 47 49 50 50 51 51 51 52 49 33 33 44 57 63 67 71 74 71 70 64 64 64 67 73 76 69 65 65 64 58 56 54
18 22 26 30 34 38 41 42 43 45 45 46 50 49 48 46 46 44 44 45 55 56 54 60 67 72 77 80 81 81 81 72 62 58 60 60 60 61 61 61 55 51 46
22 23 23 26 30 33 36 37 39 38 37 36 36 38 38 37 39 43 49 50 52 53 56 60 64 67 70 73 73 72 70 67 65 61 60 58 54 56 56 56 51 45 40
27 28 29 32 34 35 37 38 38 37 36 36 36 33 35 40 43 42 45 46 48 51 53 56 58 60 62 63 62 60 59 57 56 54 51 49 49 52 54 52 46 39 34
28 30 31 32 34 36 37 36 36 34 32 31 32 35 38 37 37 39 41 44 47 49 52 54 54 53 53 54 52 51 50 49 48 49 51 51 48 49 50 47 40 35 30
27 28 30 31 32 32 31 30 30 30 32 33 32 31 38 35 36 38 39 42 45 46 47 48 46 46 46 48 48 46 47 51 51 48 45 42 42 44 43 41 36 32 29
28 28 28 28 28 28 29 30 31 32 31 30 29 30 36 35 35 35 38 39 40 43 45 46 45 44 44 45 45 45 43 41 39 40 40 39 39 40 39 36 33 31 29
26 26 27 28 29 31 32 32 30 29 30 30 31 31 31 31 33 35 36 36 38 39 41 44 46 43 41 43 44 45 44 38 37 37 38 37 38 37 36 35 33 33 31
28 29 29 31 31 32 32 31 31 31 31 31 31 29 30 31 32 33 35 36 37 38 41 42 43 45 43 41 41 41 41 39 37 37 37 37 37 35 35 35 35 34 33
29 30 29 30 30 30 32 33 33 32 31 30 29 29 32 31 31 32 33 35 35 36 36 38 41 43 44 43 39 38 38 37 37 37 36 38 36 34 35 37 37 36 36
29 29 31 31 31 31 32 33 33 32 31 31 32 33 33 33 33 33 34 35 36 36 36 36 37 39 39 41 38 39 39 37 36 36 39 40 39 37 37 38 38 40 38
Wind_Direction_850mb
217 217 217 215 214 212 208 199 196 195 193 193 192 191 190 188 185 188 186 187 193 204 205 213 238 272 299 311 312 313 313 312 312 315 319 322 326 331 329 330 331 335 339
221 220 218 218 216 210 204 199 197 197 196 197 195 194 193 191 191 192 197 197 204 203 204 216 238 265 288 298 302 305 310 310 309 311 314 318 321 324 322 327 331 335 335
219 221 221 221 217 208 203 201 199 200 200 197 199 198 197 196 196 196 204 211 214 213 218 230 244 264 283 297 302 308 307 304 304 305 308 313 312 316 320 324 327 329 330
218 220 222 223 216 208 205 204 203 202 201 201 199 200 199 200 202 211 218 222 226 230 234 243 255 270 284 295 302 302 301 302 301 301 302 302 305 315 319 322 320 324 325
220 221 221 219 214 211 208 207 206 204 204 204 202 200 200 204 215 225 231 234 238 242 247 255 262 272 283 294 297 298 299 299 300 299 298 298 305 311 317 318 318 321 324
221 220 218 213 211 212 211 210 208 206 205 205 205 206 208 218 219 244 233 240 243 249 255 261 267 277 285 290 293 296 296 298 299 296 297 299 303 306 312 312 317 321 322
222 220 216 212 210 212 213 212 211 210 209 209 208 210 219 223 241 237 241 243 249 255 260 264 269 277 282 287 290 291 294 295 294 293 294 296 300 303 307 311 312 313 312
221 219 217 215 212 213 214 214 213 213 213 214 212 223 231 231 239 244 243 247 253 257 261 264 268 273 280 285 286 288 290 291 291 290 288 289 292 305 307 299 305 308 308
223 222 220 217 215 215 215 215 214 215 215 217 223 227 231 242 237 243 247 254 257 260 261 263 267 272 277 280 284 288 289 289 291 290 289 285 282 287 298 301 304 306 309
225 223 221 220 221 220 219 218 217 218 223 227 229 235 234 249 240 245 251 257 261 264 266 269 271 275 278 280 282 284 285 291 292 290 288 289 289 295 304 300 300 301 305
231 229 225 225 225 224 222 220 215 233 230 224 236 237 241 255 242 246 251 258 264 270 274 274 275 277 279 280 282 283 286 290 292 293 293 291 292 295 304 300 297 298 301
228 229 228 226 225 227 222 216 232 228 225 239 238 248 247 250 244 247 254 260 269 273 275 277 280 281 280 280 280 281 283 280 276 280 280 283 289 296 300 299 297 296 297
227 231 230 228 226 225 230 231 218 222 233 240 247 249 250 248 250 254 257 262 266 269 277 282 283 283 286 286 287 287 278 276 273 274 279 279 287 293 301 300 296 296 295
197 203 210 213 215 217 217 224 227 230 239 246 246 245 249 250 254 257 261 264 266 271 277 277 278 279 281 285 287 287 285 282 280 279 282 283 287 291 299 299 296 299 299
220 222 218 217 216 217 223 231 238 239 239 243 248 249 248 249 253 257 262 268 271 273 276 279 282 284 285 287 287 286 286 284 282 282 281 281 282 286 297 298 295 296 300
208 210 211 215 216 218 222 226 228 229 229 232 236 240 244 250 256 263 268 272 274 270 272 276 282 287 290 292 293 293 289 285 283 283 282 277 275 286 293 292 290 292 299
204 208 206 208 210 213 214 216 221 221 227 233 240 247 257 261 264 269 276 275 275 283 281 283 283 284 285 286 287 288 288 288 287 283 282 274 278 284 287 288 287 289 296
208 206 213 216 214 215 216 219 224 228 235 242 249 254 261 268 272 276 276 285 285 288 290 293 294 294 293 291 291 292 292 289 282 277 273 274 275 281 283 283 284 287 294
224 223 222 222 222 224 226 228 232 236 239 242 248 254 261 267 272 277 284 285 290 295 298 299 299 300 301 301 300 297 295 291 284 276 275 275 277 279 280 280 280 282 291
240 240 238 236 235 234 233 233 233 234 237 243 249 257 263 268 275 283 287 292 298 302 304 304 306 307 308 307 305 301 297 294 294 286 277 274 275 275 276 277 276 278 283
245 242 239 235 232 231 231 233 235 238 242 246 249 255 265 273 279 286 295 301 303 304 304 305 309 311 310 309 307 302 293 289 290 287 283 280 276 274 274 274 273 273 281
242 238 235 232 231 233 235 237 239 242 246 251 257 262 273 283 291 297 300 300 303 306 306 308 310 310 309 308 306 305 301 297 292 288 284 281 278 276 275 272 269 268 274
236 234 235 237 238 239 239 241 243 246 252 257 262 268 275 284 291 293 295 297 300 303 305 307 308 307 304 301 300 301 300 300 295 290 286 282 278 277 274 271 269 265 269
233 231 232 236 239 241 241 241 244 247 253 258 264 270 276 279 281 283 288 292 298 301 302 301 301 302 301 298 295 294 293 293 291 290 287 283 280 275 271 269 268 268 266
233 233 232 232 235 239 244 247 250 253 256 260 264 266 268 270 274 278 283 289 294 296 296 296 297 296 296 294 294 293 291 289 289 287 284 282 279 276 273 269 266 267 266
236 236 236 238 240 243 248 253 256 258 259 260 262 264 266 270 272 276 281 285 289 292 294 296 296 296 296 295 294 292 290 289 287 283 282 279 277 275 272 270 266 265 267